Location: Most
(50.5133°N, 13.6207°E)
Time: 18:13:38
(UTC+02:00)

ISS - Pass Details

Date: 29 September 2021
Orbit: 418 x 423 km, 51.6° (Epoch: 18 October)

Event Time Altitude Azimuth Distance (km) Brightness Sun altitude
Rises 21:49:28 0° 285° (WNW) 2,368 1.1 -28.3°
Reaches altitude 10° 21:51:50 10° 270° (W) 1,502 -0.3 -28.6°
Enters shadow 21:52:19 13° 264° (W) 1,348 -0.7 -28.6°
